Escondido, California, United States (92025)
Lat: 33.12N, Lon: 117.09W
Wx Zone: CAZ050
Local Info
Past Weather Observations for Yesterday

NOTE: This archive is for the closest National Weather Service station to Escondido. Information may differ from the station used for current weather conditions.

Click here for Long-term Archive

Time Weather Temperature Dewpoint Humidity Pressure Winds Precip Visibility
23:53
Overcast
70°F / 21°C 61°F / 16°C 73% 29.95 in
(1014 mb)
SSE 3.5 mph
(SSE 6 kph)
- 10SM
22:53
Overcast
70°F / 21°C 61°F / 16°C 73% 29.95 in
(1014 mb)
Calm - 10SM
22:22
Mostly Cloudy
70°F / 21°C 61°F / 16°C 73% 29.95 in
(1014 mb)
Calm - 10SM
21:53
Clear
70°F / 21°C 61°F / 16°C 73% 29.95 in
(1014 mb)
Calm - 10SM
20:53
Partly Cloudy
70°F / 21°C 61°F / 16°C 73% 29.95 in
(1014 mb)
Calm - 10SM
19:53
Clear
70°F / 21°C 61°F / 16°C 73% 29.92 in
(1013 mb)
Calm - 10SM
18:53
Clear
70°F / 21°C 61°F / 16°C 73% 29.92 in
(1013 mb)
Calm - 10SM
17:53
Clear
72°F / 22°C 61°F / 16°C 69% 29.92 in
(1013 mb)
W 4.6 mph
(W 7 kph)
- 10SM
16:53
Clear
72°F / 22°C 61°F / 16°C 69% 29.89 in
(1012 mb)
W 6.9 mph
(W 11 kph)
- 10SM
15:53
Clear
73°F / 23°C 61°F / 16°C 65% 29.89 in
(1012 mb)
W 6.9 mph
(W 11 kph)
- 10SM
14:53
Clear
73°F / 23°C 61°F / 16°C 65% 29.89 in
(1012 mb)
W 6.9 mph
(W 11 kph)
- 10SM
13:53
Partly Cloudy
73°F / 23°C 61°F / 16°C 65% 29.89 in
(1012 mb)
Calm - 10SM
12:53
Partly Cloudy
73°F / 23°C 61°F / 16°C 65% 29.92 in
(1013 mb)
SSW 5.8 mph
(SSW 9 kph)
- 10SM
12:25
Partly Cloudy
73°F / 23°C 61°F / 16°C 65% 29.92 in
(1013 mb)
Variable 5.8 mph
(Variable 9 kph)
- 10SM
11:53
Overcast
73°F / 23°C 61°F / 16°C 65% 29.95 in
(1014 mb)
W 8.1 mph
(W 13 kph)
- 10SM
10:53
Mostly Cloudy
72°F / 22°C 61°F / 16°C 69% 29.95 in
(1014 mb)
SSW 8.1 mph
(SSW 13 kph)
- 10SM
09:53
Overcast
72°F / 22°C 63°F / 17°C 73% 29.95 in
(1014 mb)
Variable 5.8 mph
(Variable 9 kph)
- 10SM
08:53
Overcast
72°F / 22°C 61°F / 16°C 69% 29.95 in
(1014 mb)
Calm - 10SM
07:53
Overcast
70°F / 21°C 61°F / 16°C 73% 29.95 in
(1014 mb)
Calm - 10SM
06:53
Overcast
70°F / 21°C 61°F / 16°C 73% 29.95 in
(1014 mb)
SE 3.5 mph
(SE 6 kph)
- 10SM
05:53
Overcast
70°F / 21°C 63°F / 17°C 78% 29.92 in
(1013 mb)
Calm - 10SM
04:53
Overcast
70°F / 21°C 63°F / 17°C 78% 29.92 in
(1013 mb)
SW 3.5 mph
(SW 6 kph)
- 10SM
03:53
Overcast
70°F / 21°C 63°F / 17°C 78% 29.89 in
(1012 mb)
Calm - 10SM
02:53
Overcast
70°F / 21°C 63°F / 17°C 78% 29.89 in
(1012 mb)
SE 3.5 mph
(SE 6 kph)
- 9SM
01:53
Overcast
70°F / 21°C 63°F / 17°C 78% 29.89 in
(1012 mb)
S 3.5 mph
(S 6 kph)
- 10SM
00:53
Overcast
70°F / 21°C 63°F / 17°C 78% 29.92 in
(1013 mb)
Calm - 10SM
Time Weather Temperature Dewpoint Humidity Pressure Winds Precip Visibility


Weather for websites

WeatherForYou.com, LLC is not responsible for any damages or problems caused by this service. Current weather conditions are obtained from the closest station including government and personal stations which may have varying degrees of accuracy. Weather forecasts are derived from the NOAA NDFD. Like all things, this site belongs to Jesus Christ... He just trusts me to maintain it. If you have any questions or comments email webmaster@weatherforyou.com

Copyright © 2014, WeatherForYou.com LLC. All rights reserved.